| time (UTC) | temp C | wind direction | speed KPH | gust KPH | rain 1hr cm | rain 24hr cm | rain mn cm | humidity % | barometer mb |
| 20260905223110 | 13 | 304 | 4.8 | 12.9 | 0.00 | 0.56 | 0.00 | 88 | 1012.6 |
| 20260905222052 | 13 | 31 | 1.6 | 4.8 | 0.00 | 0.56 | 0.00 | 88 | 1012.7 |
| 20260905221109 | 13 | 320 | 3.2 | 8.0 | 0.00 | 0.56 | 0.00 | 88 | 1012.5 |
| 20260905220044 | 13 | 294 | 1.6 | 6.4 | 0.00 | 0.56 | 0.00 | 88 | 1012.5 |
| 20260905215107 | 13 | 270 | 4.8 | 12.9 | 0.00 | 0.56 | 0.56 | 88 | 1012.5 |
| 20260905214036 | 13 | 330 | 3.2 | 6.4 | 0.00 | 0.56 | 0.56 | 88 | 1012.4 |
| 20260905213047 | 13 | 89 | 3.2 | 6.4 | 0.00 | 0.56 | 0.56 | 88 | 1012.3 |
| 20260905212041 | 13 | 270 | 3.2 | 6.4 | 0.00 | 0.56 | 0.56 | 88 | 1012.3 |
| 20260905211031 | 13 | 291 | 3.2 | 6.4 | 0.00 | 0.56 | 0.56 | 88 | 1012.2 |
| 20260905210034 | 13 | 266 | 3.2 | 6.4 | 0.00 | 0.56 | 0.56 | 88 | 1012.1 |
| 20260905205020 | 13 | 267 | 3.2 | 8.0 | 0.00 | 0.56 | 0.56 | 88 | 1012.1 |
| 20260905204021 | 13 | 310 | 1.6 | 4.8 | 0.00 | 0.56 | 0.56 | 88 | 1012.0 |
| 20260905203129 | 13 | 25 | 4.8 | 8.0 | 0.00 | 0.56 | 0.56 | 89 | 1011.9 |
| 20260905202141 | 13 | 283 | 4.8 | 8.0 | 0.00 | 0.56 | 0.56 | 89 | 1011.9 |
| 20260905201108 | 13 | 329 | 4.8 | 14.5 | 0.00 | 0.56 | 0.56 | 89 | 1011.7 |
| 20260905195113 | 13 | 23 | 3.2 | 8.0 | 0.00 | 0.56 | 0.56 | 89 | 1011.7 |
| 20260905194100 | 13 | 340 | 3.2 | 8.0 | 0.00 | 0.56 | 0.56 | 89 | 1011.7 |
| 20260905193058 | 13 | 279 | 3.2 | 8.0 | 0.00 | 0.56 | 0.56 | 89 | 1011.6 |
| 20260905192052 | 13 | 340 | 3.2 | 12.9 | 0.00 | 0.56 | 0.56 | 89 | 1011.6 |
| 20260905191052 | 13 | 244 | 3.2 | 6.4 | 0.00 | 0.56 | 0.56 | 89 | 1011.6 |
| 20260905190043 | 13 | 297 | 3.2 | 6.4 | 0.00 | 0.56 | 0.56 | 90 | 1011.4 |
| 20260905185124 | 13 | 13 | 4.8 | 9.7 | 0.00 | 0.56 | 0.56 | 90 | 1011.4 |
| 20260905184040 | 13 | 346 | 6.4 | 12.9 | 0.00 | 0.56 | 0.56 | 90 | 1011.4 |
| 20260905183042 | 13 | 306 | 4.8 | 12.9 | 0.00 | 0.56 | 0.56 | 90 | 1011.2 |
| 20260905182038 | 13 | 316 | 6.4 | 16.1 | 0.00 | 0.56 | 0.56 | 90 | 1011.0 |
| 20260905181100 | 13 | 204 | 6.4 | 11.3 | 0.03 | 0.61 | 0.56 | 90 | 1010.9 |
| 20260905180023 | 13 | 9 | 4.8 | 11.3 | 0.05 | 0.61 | 0.56 | 90 | 1010.8 |
| 20260905175051 | 13 | 348 | 4.8 | 14.5 | 0.15 | 0.61 | 0.56 | 90 | 1010.7 |
| 20260905174119 | 13 | 326 | 6.4 | 11.3 | 0.43 | 0.61 | 0.56 | 90 | 1010.8 |
| 20260905173110 | 13 | 352 | 6.4 | 12.9 | 0.48 | 0.61 | 0.56 | 90 | 1010.9 |
| 20260905172107 | 13 | 304 | 6.4 | 12.9 | 0.56 | 0.61 | 0.56 | 89 | 1011.0 |
| 20260905171105 | 13 | 323 | 4.8 | 9.7 | 0.53 | 0.66 | 0.53 | 88 | 1011.1 |
| 20260905170101 | 14 | 324 | 8.0 | 19.3 | 0.51 | 0.79 | 0.51 | 86 | 1011.2 |
| 20260905165126 | 15 | 327 | 9.7 | 27.4 | 0.43 | 0.69 | 0.43 | 83 | 1011.3 |
| 20260905164056 | 15 | 334 | 9.7 | 16.1 | 0.15 | 0.43 | 0.15 | 78 | 1010.6 |
| 20260905163054 | 17 | 355 | 14.5 | 25.7 | 0.10 | 0.36 | 0.10 | 72 | 1010.3 |
| 20260905162127 | 18 | 16 | 3.2 | 4.8 | 0.00 | 0.28 | 0.00 | 68 | 1009.6 |
| 20260905161105 | 18 | 0 | 0.0 | 3.2 | 0.00 | 0.28 | 0.00 | 66 | 1009.3 |
| 20260905160040 | 18 | 350 | 1.6 | 4.8 | 0.00 | 0.28 | 0.00 | 65 | 1008.9 |
| 20260905155057 | 18 | 351 | 1.6 | 4.8 | 0.00 | 0.28 | 0.00 | 62 | 1009.0 |
| 20260905154033 | 19 | 6 | 4.8 | 8.0 | 0.00 | 0.28 | 0.00 | 60 | 1008.9 |
| 20260905153030 | 20 | 288 | 3.2 | 6.4 | 0.00 | 0.28 | 0.00 | 59 | 1008.9 |
| 20260905152025 | 19 | 264 | 1.6 | 6.4 | 0.00 | 0.28 | 0.00 | 59 | 1008.9 |
| 20260905151021 | 18 | 6 | 1.6 | 6.4 | 0.00 | 0.28 | 0.00 | 61 | 1008.7 |
| 20260905150019 | 18 | 311 | 3.2 | 6.4 | 0.00 | 0.28 | 0.00 | 67 | 1008.9 |
| 20260905145136 | 17 | 281 | 3.2 | 6.4 | 0.00 | 0.28 | 0.00 | 71 | 1009.1 |
| 20260905144110 | 17 | 326 | 8.0 | 20.9 | 0.00 | 0.28 | 0.00 | 64 | 1009.4 |
| 20260905143113 | 20 | 349 | 11.3 | 24.1 | 0.00 | 0.28 | 0.00 | 50 | 1009.2 |
| 20260905142108 | 20 | 340 | 8.0 | 17.7 | 0.00 | 0.28 | 0.00 | 48 | 1008.6 |
| 20260905141105 | 21 | 249 | 6.4 | 16.1 | 0.00 | 0.28 | 0.00 | 47 | 1008.7 |
| 20260905135056 | 22 | 175 | 9.7 | 27.4 | 0.00 | 0.28 | 0.00 | 41 | 1008.5 |
| 20260905134052 | 21 | 266 | 9.7 | 16.1 | 0.00 | 0.28 | 0.00 | 46 | 1008.5 |
| 20260905133049 | 21 | 311 | 9.7 | 17.7 | 0.00 | 0.28 | 0.00 | 45 | 1008.7 |
| 20260905132042 | 21 | 318 | 6.4 | 16.1 | 0.00 | 0.28 | 0.00 | 43 | 1008.5 |
| 20260905131041 | 21 | 359 | 4.8 | 9.7 | 0.00 | 0.28 | 0.00 | 42 | 1008.4 |
| 20260905130037 | 22 | 331 | 9.7 | 24.1 | 0.00 | 0.28 | 0.00 | 39 | 1008.4 |
| 20260905125033 | 23 | 314 | 9.7 | 22.5 | 0.00 | 0.28 | 0.00 | 37 | 1008.3 |
| 20260905124118 | 23 | 299 | 8.0 | 24.1 | 0.00 | 0.28 | 0.00 | 38 | 1008.2 |
| 20260905123025 | 22 | 359 | 12.9 | 27.4 | 0.00 | 0.28 | 0.00 | 40 | 1008.4 |
| 20260905122103 | 21 | 353 | 11.3 | 17.7 | 0.00 | 0.28 | 0.00 | 43 | 1008.4 |
| 20260905121018 | 22 | 322 | 12.9 | 24.1 | 0.00 | 0.28 | 0.00 | 42 | 1008.5 |
| 20260905120115 | 23 | 213 | 8.0 | 12.9 | 0.00 | 0.28 | 0.00 | 41 | 1008.6 |
| 20260905115114 | 22 | 331 | 9.7 | 17.7 | 0.00 | 0.28 | 0.00 | 42 | 1008.5 |
| 20260905114109 | 22 | 258 | 8.0 | 16.1 | 0.00 | 0.28 | 0.00 | 43 | 1008.4 |
| 20260905113113 | 21 | 4 | 8.0 | 11.3 | 0.00 | 0.28 | 0.00 | 51 | 1008.4 |
| 20260905112120 | 21 | 332 | 8.0 | 16.1 | 0.00 | 0.28 | 0.00 | 51 | 1008.7 |
| 20260905111100 | 21 | 19 | 8.0 | 12.9 | 0.00 | 0.28 | 0.00 | 50 | 1008.6 |
| 20260905110054 | 21 | 295 | 9.7 | 24.1 | 0.00 | 0.28 | 0.00 | 48 | 1008.4 |
| 20260905105054 | 22 | 330 | 6.4 | 16.1 | 0.00 | 0.28 | 0.00 | 48 | 1008.6 |
| 20260905104154 | 22 | 329 | 8.0 | 17.7 | 0.00 | 0.28 | 0.00 | 44 | 1008.5 |
| 20260905103046 | 22 | 312 | 11.3 | 20.9 | 0.00 | 0.28 | 0.00 | 49 | 1008.5 |
| 20260905102040 | 21 | 41 | 8.0 | 16.1 | 0.00 | 0.28 | 0.00 | 51 | 1008.4 |
| 20260905101036 | 21 | 338 | 9.7 | 17.7 | 0.00 | 0.28 | 0.00 | 50 | 1008.3 |
| 20260905100039 | 21 | 292 | 8.0 | 14.5 | 0.00 | 0.28 | 0.00 | 50 | 1008.2 |
| 20260905095036 | 21 | 275 | 8.0 | 12.9 | 0.00 | 0.28 | 0.00 | 50 | 1008.1 |
| 20260905094030 | 21 | 315 | 8.0 | 12.9 | 0.00 | 0.28 | 0.00 | 51 | 1008.2 |
| 20260905093021 | 21 | 321 | 11.3 | 20.9 | 0.00 | 0.28 | 0.00 | 51 | 1008.2 |
| 20260905092017 | 20 | 331 | 9.7 | 17.7 | 0.00 | 0.28 | 0.00 | 52 | 1008.1 |
| 20260905091138 | 20 | 316 | 9.7 | 16.1 | 0.00 | 0.28 | 0.00 | 52 | 1008.1 |
| 20260905090134 | 21 | 270 | 8.0 | 14.5 | 0.00 | 0.28 | 0.00 | 53 | 1008.0 |
| 20260905085119 | 20 | 330 | 9.7 | 20.9 | 0.00 | 0.28 | 0.00 | 54 | 1008.1 |
| 20260905084110 | 20 | 333 | 6.4 | 16.1 | 0.00 | 0.28 | 0.00 | 60 | 1008.0 |
| 20260905083143 | 19 | 317 | 8.0 | 14.5 | 0.00 | 0.28 | 0.00 | 60 | 1008.0 |
| 20260905082137 | 19 | 322 | 9.7 | 19.3 | 0.00 | 0.28 | 0.00 | 62 | 1007.8 |
| 20260905080056 | 18 | 323 | 11.3 | 16.1 | 0.00 | 0.28 | 0.00 | 61 | 1007.8 |
| 20260905075047 | 18 | 260 | 8.0 | 12.9 | 0.00 | 0.28 | 0.00 | 62 | 1007.6 |
| 20260905074105 | 18 | 338 | 8.0 | 19.3 | 0.00 | 0.28 | 0.00 | 62 | 1007.5 |
| 20260905073045 | 18 | 307 | 9.7 | 17.7 | 0.00 | 0.28 | 0.00 | 63 | 1007.5 |
| 20260905072054 | 18 | 314 | 4.8 | 12.9 | 0.00 | 0.28 | 0.00 | 65 | 1007.4 |
| 20260905071054 | 17 | 330 | 9.7 | 16.1 | 0.00 | 0.28 | 0.00 | 66 | 1007.4 |
| 20260905070035 | 17 | 4 | 11.3 | 24.1 | 0.00 | 0.28 | 0.00 | 70 | 1007.4 |
| 20260905065030 | 17 | 248 | 8.0 | 16.1 | 0.00 | 0.28 | 0.00 | 67 | 1007.2 |
| 20260905064032 | 17 | 294 | 6.4 | 12.9 | 0.00 | 0.28 | 0.00 | 71 | 1007.1 |
| 20260905063028 | 17 | 350 | 9.7 | 16.1 | 0.00 | 0.28 | 0.00 | 69 | 1007.1 |
| 20260905062118 | 17 | 327 | 6.4 | 12.9 | 0.00 | 0.28 | 0.00 | 73 | 1007.0 |
| 20260905061117 | 17 | 317 | 6.4 | 12.9 | 0.00 | 0.28 | 0.00 | 72 | 1006.9 |
| 20260905060107 | 17 | 293 | 8.0 | 12.9 | 0.00 | 0.28 | 0.00 | 70 | 1006.8 |
| 20260905055124 | 17 | 281 | 6.4 | 14.5 | 0.00 | 0.28 | 0.00 | 76 | 1006.7 |
| 20260905054227 | 16 | 337 | 6.4 | 11.3 | 0.00 | 0.28 | 0.00 | 76 | 1006.6 |
| 20260905053116 | 16 | 346 | 8.0 | 17.7 | 0.00 | 0.28 | 0.00 | 78 | 1006.4 |
| 20260905052138 | 16 | 297 | 4.8 | 11.3 | 0.00 | 0.28 | 0.00 | 78 | 1006.3 |
| 20260905051050 | 16 | 265 | 6.4 | 11.3 | 0.00 | 0.28 | 0.00 | 78 | 1006.2 |
| 20260905050113 | 16 | 291 | 3.2 | 6.4 | 0.00 | 0.28 | 0.00 | 78 | 1006.1 |
| 20260905045042 | 16 | 332 | 4.8 | 8.0 | 0.00 | 0.28 | 0.00 | 79 | 1006.0 |
| 20260905044037 | 15 | 321 | 3.2 | 9.7 | 0.00 | 0.28 | 0.00 | 79 | 1006.0 |
| 20260905043036 | 15 | 349 | 6.4 | 14.5 | 0.00 | 0.28 | 0.00 | 79 | 1005.9 |
| 20260905042030 | 15 | 312 | 4.8 | 11.3 | 0.00 | 0.28 | 0.00 | 80 | 1005.9 |
| 20260905041027 | 15 | 20 | 6.4 | 14.5 | 0.00 | 0.28 | 0.00 | 80 | 1005.8 |
| 20260905040025 | 16 | 272 | 6.4 | 11.3 | 0.00 | 0.28 | 0.00 | 80 | 1005.7 |
| 20260905035020 | 16 | 348 | 4.8 | 11.3 | 0.00 | 0.28 | 0.00 | 79 | 1005.5 |
| 20260905034018 | 16 | 299 | 8.0 | 12.9 | 0.00 | 0.28 | 0.00 | 79 | 1005.4 |
| 20260905033115 | 16 | 242 | 4.8 | 11.3 | 0.00 | 0.28 | 0.00 | 78 | 1005.2 |
| 20260905032110 | 16 | 324 | 4.8 | 8.0 | 0.00 | 0.28 | 0.00 | 78 | 1005.0 |
| 20260905031105 | 16 | 299 | 8.0 | 16.1 | 0.00 | 0.28 | 0.00 | 77 | 1004.9 |
| 20260905025058 | 16 | 332 | 6.4 | 12.9 | 0.00 | 0.28 | 0.00 | 79 | 1004.6 |
| 20260905024059 | 16 | 335 | 8.0 | 12.9 | 0.00 | 0.28 | 0.00 | 78 | 1004.7 |
| 20260905023054 | 16 | 333 | 6.4 | 12.9 | 0.00 | 0.28 | 0.00 | 78 | 1004.6 |
| 20260905022048 | 16 | 339 | 8.0 | 12.9 | 0.00 | 0.28 | 0.00 | 78 | 1004.5 |
| 20260905021045 | 16 | 283 | 8.0 | 12.9 | 0.00 | 0.28 | 0.00 | 78 | 1004.1 |
| 20260905020040 | 16 | 343 | 8.0 | 17.7 | 0.00 | 0.28 | 0.00 | 78 | 1004.3 |
| 20260905015036 | 17 | 319 | 8.0 | 16.1 | 0.00 | 0.28 | 0.00 | 78 | 1004.3 |
| 20260905014056 | 17 | 7 | 4.8 | 12.9 | 0.00 | 0.28 | 0.00 | 78 | 1004.2 |
| 20260905013031 | 17 | 308 | 6.4 | 12.9 | 0.00 | 0.28 | 0.00 | 78 | 1004.0 |
| 20260905012037 | 17 | 350 | 6.4 | 14.5 | 0.00 | 0.28 | 0.00 | 79 | 1004.0 |
| 20260905011025 | 17 | 40 | 8.0 | 17.7 | 0.00 | 0.28 | 0.00 | 79 | 1003.9 |
| 20260905010019 | 17 | 301 | 8.0 | 12.9 | 0.00 | 0.28 | 0.00 | 80 | 1003.9 |
| 20260905005115 | 17 | 323 | 8.0 | 12.9 | 0.00 | 0.28 | 0.00 | 80 | 1004.0 |
| 20260905004111 | 17 | 273 | 6.4 | 8.0 | 0.00 | 0.28 | 0.00 | 81 | 1004.0 |
| 20260905003110 | 17 | 291 | 6.4 | 12.9 | 0.00 | 0.28 | 0.00 | 83 | 1003.9 |
| 20260905002126 | 17 | 309 | 6.4 | 12.9 | 0.00 | 0.28 | 0.00 | 84 | 1003.8 |
| 20260905001103 | 16 | 321 | 8.0 | 14.5 | 0.00 | 0.28 | 0.00 | 85 | 1003.2 |
| 20260905000057 | 16 | 344 | 6.4 | 8.0 | 0.00 | 0.28 | 0.00 | 85 | 1003.1 |
| 20260904235053 | 16 | 289 | 4.8 | 11.3 | 0.00 | 0.28 | 0.00 | 85 | 1003.5 |
| 20260904234110 | 16 | 321 | 4.8 | 12.9 | 0.00 | 0.28 | 0.00 | 85 | 1003.5 |
| 20260904233106 | 16 | 282 | 6.4 | 12.9 | 0.00 | 0.28 | 0.00 | 85 | 1003.5 |
| 20260904232042 | 16 | 358 | 4.8 | 12.9 | 0.00 | 0.28 | 0.00 | 85 | 1003.5 |
| 20260904231059 | 16 | 302 | 4.8 | 12.9 | 0.00 | 0.28 | 0.00 | 85 | 1003.3 |
| 20260904230035 | 16 | 41 | 6.4 | 11.3 | 0.00 | 0.28 | 0.00 | 86 | 1003.1 |
| 20260904225031 | 16 | 336 | 6.4 | 11.3 | 0.00 | 0.28 | 0.00 | 86 | 1002.9 |
| 20260904224031 | 16 | 298 | 6.4 | 12.9 | 0.00 | 0.28 | 0.00 | 86 | 1002.5 |